Location: Summit Observatory
(39.5293°N, 75.7290°W)
Time: 07:13:10
(UTC-05:00)

Amateur Radio Satellites - All Passes

Search period start: 21 November 2017 06:43
Search period end: 22 November 2017 06:43
Location: Summit Observatory, 39.5293°N, 75.7290°W

Satellite Date Start Highest point End Downlink Frequencies (MHz)
Time Altitude Azimuth
XW-2C 21 Nov 06:49:12 06:52:34 30° 288° (WNW) 06:55:56 145.795 - 145.815
CUTE 1.7 + AOD 2 21 Nov 06:49:58 06:54:08 51° 99° (E) 06:58:18 437.475
LilacSat-2 21 Nov 06:51:06 06:54:23 27° 289° (WNW) 06:57:41 437.200
CUTE-I 21 Nov 06:52:36 06:57:53 60° 287° (WNW) 07:03:08 437.470
XW-2F 21 Nov 07:00:12 07:03:19 25° 290° (WNW) 07:06:27 145.980 - 146.000
UWE-3 21 Nov 07:06:25 07:09:45 23° 95° (E) 07:13:04 435.000/436.395/437.385
SEEDS 21 Nov 07:20:36 07:24:51 70° 102° (ESE) 07:29:05 437.485
AAUSAT CUBESAT 2 21 Nov 07:27:56 07:31:46 34° 97° (E) 07:35:35 437.432
KAITUO 1B 21 Nov 07:29:03 07:31:15 15° 293° (WNW) 07:33:27 145.475/437.950
FO-29 21 Nov 07:31:47 07:38:14 62° 71° (ENE) 07:45:31 435.910
CUBEBUG 2 21 Nov 07:45:14 07:49:22 64° 285° (WNW) 07:53:26 437.445
UNISAT 6 21 Nov 07:47:24 07:49:31 13° 64° (ENE) 07:51:36 437.425
AO-73 21 Nov 07:47:44 07:51:26 31° 97° (E) 07:55:08 145.935
TIGRISAT 21 Nov 07:51:43 07:53:52 13° 64° (ENE) 07:56:00 435.000
STRAND 1 21 Nov 07:59:09 08:02:38 18° 268° (W) 08:06:07 437.568
HO-68 21 Nov 08:01:52 08:08:48 53° 292° (WNW) 08:15:40 435.675
XW-2A 21 Nov 08:02:12 08:05:33 67° 284° (WNW) 08:08:53 145.665 - 145.685
Oscar 11 21 Nov 08:04:11 08:08:05 32° 97° (E) 08:11:59 .
CUTE 1.7 + AOD 2 21 Nov 08:27:18 08:29:31 14° 295° (WNW) 08:31:43 437.475
ZACube-1 21 Nov 08:32:30 08:36:37 66° 284° (WNW) 08:40:44 437.345
UWE-3 21 Nov 08:42:42 08:46:10 26° 290° (WNW) 08:49:36 435.000/436.395/437.385
PRISM 21 Nov 08:46:27 08:49:16 18° 66° (ENE) 08:52:06 437.425
SEEDS 21 Nov 08:59:11 08:59:55 10° 297° (WNW) 09:00:41 437.485
PCSat 21 Nov 09:02:08 09:07:25 50° 57° (ENE) 09:12:40 145.827
AAUSAT CUBESAT 2 21 Nov 09:04:00 09:06:57 19° 293° (WNW) 09:09:54 437.432
EO-88 21 Nov 09:05:06 09:06:52 13° 92° (E) 09:08:38 145.990 - 145.960
Max Valier Satellite 21 Nov 09:05:52 09:08:37 20° 95° (E) 09:11:22 145.860
FO-29 21 Nov 09:18:47 09:23:51 23° 271° (W) 09:29:22 435.910
UNISAT 6 21 Nov 09:21:10 09:25:42 62° 259° (W) 09:30:10 437.425
AO-73 21 Nov 09:24:26 09:27:28 20° 292° (WNW) 09:30:30 145.935
TIGRISAT 21 Nov 09:25:31 09:30:03 61° 259° (W) 09:34:31 435.000
FALCONSAT 3 21 Nov 09:30:43 09:33:37 22° 160° (SSE) 09:36:32 435.103
DELFI C3 21 Nov 09:33:34 09:37:34 70° 102° (ESE) 09:41:31 145.870
Oscar 11 21 Nov 09:40:45 09:44:00 21° 292° (WNW) 09:47:15 .
QB50P2 21 Nov 09:50:38 09:51:52 11° 63° (ENE) 09:53:07 145.880/145.840
PRISM 21 Nov 10:20:28 10:24:15 35° 262° (W) 10:28:04 437.425
EO-88 21 Nov 10:37:16 10:40:37 35° 287° (WNW) 10:43:58 145.990 - 145.960
DUCHIFAT 1 21 Nov 10:37:37 10:41:05 25° 69° (ENE) 10:44:33 145.980
Max Valier Satellite 21 Nov 10:39:24 10:42:22 24° 290° (WNW) 10:45:20 145.860
AIST 2D 21 Nov 10:41:03 10:44:28 67° 258° (WSW) 10:47:57 435.315
EO-79 21 Nov 10:44:29 10:48:26 39° 72° (ENE) 10:52:24 145.935-145.965
PCSat 21 Nov 10:46:24 10:50:25 21° 254° (WSW) 10:54:24 145.827
NANOSAT C BR1 21 Nov 10:47:43 10:51:38 37° 72° (ENE) 10:55:32 145.865
ESTCUBE 1 21 Nov 10:52:41 10:56:33 27° 96° (E) 11:00:23 437.505/2401.250
POLYITAN 1 21 Nov 10:59:35 11:03:45 59° 74° (ENE) 11:07:56 437.675
BEESAT 2 21 Nov 11:00:52 11:02:51 13° 43° (NE) 11:04:48 435.950
LO-87 21 Nov 11:01:15 11:04:41 45° 99° (E) 11:08:04 145.935 - 145.965
FALCONSAT 3 21 Nov 11:08:48 11:12:18 42° 175° (S) 11:15:49 435.103
QB50P2 21 Nov 11:22:52 11:27:05 65° 259° (W) 11:31:18 145.880/145.840
BEESAT 3 21 Nov 11:25:17 11:29:13 68° 58° (ENE) 11:33:04 437.485
Oscar 19 21 Nov 11:29:39 11:32:45 16° 62° (ENE) 11:35:51 437.125/150
BUGSAT 1 21 Nov 11:29:51 11:33:13 24° 69° (ENE) 11:36:33 437.445
Gurwin Techsat 1B 21 Nov 11:55:02 11:58:55 21° 64° (ENE) 12:02:50 435.225
AO-85 21 Nov 11:57:39 12:01:25 23° 48° (NE) 12:05:23 145.980
SPROUT 21 Nov 12:08:51 12:12:54 43° 99° (E) 12:16:55 437.525
DUCHIFAT 1 21 Nov 12:13:08 12:16:39 25° 264° (W) 12:20:10 145.980
EO-79 21 Nov 12:21:39 12:24:19 16° 267° (W) 12:27:01 145.935-145.965
NANOSAT C BR1 21 Nov 12:24:41 12:27:27 17° 267° (W) 12:30:13 145.865
ESTCUBE 1 21 Nov 12:29:26 12:33:15 27° 291° (WNW) 12:37:04 437.505/2401.250
BEESAT 2 21 Nov 12:37:01 12:41:02 70° 240° (WSW) 12:44:58 435.950
LO-87 21 Nov 12:37:07 12:37:38 10° 295° (WNW) 12:38:09 145.935 - 145.965
POLYITAN 1 21 Nov 12:38:49 12:39:52 11° 269° (W) 12:40:55 437.675
O/OREOS (USA 219) 21 Nov 12:40:42 12:44:49 33° 104° (ESE) 12:48:58 437.305
M-CUBED/EXP-1 PRIME 21 Nov 12:42:48 12:44:57 15° 59° (ENE) 12:47:12 437.505
50 SAT 21 Nov 12:47:36 12:49:07 13° 93° (E) 12:50:39 437.505
FALCONSAT 3 21 Nov 12:47:41 12:51:06 36° 190° (S) 12:54:32 435.103
VELOX 1 21 Nov 12:48:32 12:53:00 76° 102° (ESE) 12:57:26 145.980
BUGSAT 1 21 Nov 13:04:51 13:08:25 27° 264° (W) 13:12:00 437.445
Oscar 19 21 Nov 13:06:29 13:11:32 61° 259° (WSW) 13:16:38 437.125/150
AO-7 21 Nov 13:14:07 13:20:56 30° 57° (ENE) 13:27:46 .
ITAMSAT 1 21 Nov 13:23:56 13:25:46 12° 59° (ENE) 13:27:37 435.822/435.867
Gurwin Techsat 1B 21 Nov 13:33:21 13:38:29 49° 261° (W) 13:43:39 435.225
DX 1 21 Nov 13:33:28 13:37:45 50° 100° (E) 13:41:59 434.975-435.025
AO-85 21 Nov 13:37:26 13:42:01 47° 243° (WSW) 13:46:53 145.980
NO-84 21 Nov 13:38:04 13:39:44 13° 121° (ESE) 13:41:29 435.350 FM
SPROUT 21 Nov 13:45:51 13:48:25 16° 295° (WNW) 13:50:58 437.525
MOZHAYETS 4 21 Nov 14:01:17 14:02:26 11° 90° (E) 14:03:35
UKube-1 21 Nov 14:15:01 14:19:22 88° 277° (W) 14:23:41 .
M-CUBED/EXP-1 PRIME 21 Nov 14:15:45 14:19:00 35° 258° (WSW) 14:22:29 437.505
50 SAT 21 Nov 14:18:29 14:21:15 27° 289° (WNW) 14:24:00 437.505
O/OREOS (USA 219) 21 Nov 14:20:33 14:24:16 24° 301° (WNW) 14:27:59 437.305
FALCONSAT 3 21 Nov 14:27:24 14:29:41 16° 204° (SSW) 14:31:59 435.103
VELOX 1 21 Nov 14:27:50 14:28:47 11° 299° (WNW) 14:29:43 145.980
YUBILEINY 21 Nov 14:38:26 14:42:28 14° 59° (ENE) 14:46:29 435.215
ITAMSAT 1 21 Nov 14:59:12 15:04:26 89° 259° (WSW) 15:09:43 435.822/435.867
AO-7 21 Nov 15:04:56 15:13:07 64° 256° (WSW) 15:21:22 .
DX 1 21 Nov 15:11:00 15:13:29 15° 296° (WNW) 15:15:56 434.975-435.025
NO-84 21 Nov 15:12:53 15:16:30 64° 318° (NW) 15:20:27 435.350 FM
BEESAT 21 Nov 15:15:50 15:20:30 53° 100° (E) 15:25:08 436.000
ITUPSAT 1 21 Nov 15:25:41 15:30:25 67° 102° (ESE) 15:35:08 437.325
DOVE 4 21 Nov 15:30:38 15:34:59 30° 68° (ENE) 15:39:31 437.250
MOZHAYETS 4 21 Nov 15:35:28 15:40:00 67° 285° (WNW) 15:44:32
CUBESAT XI-V 21 Nov 15:47:53 15:52:14 36° 98° (E) 15:56:33 437.345
JUGNU 21 Nov 16:15:00 16:15:23 10° 180° (S) 16:15:47 437.505
YUBILEINY 21 Nov 16:32:09 16:41:02 72° 81° (E) 16:49:49 435.215
KAITUO 1B 21 Nov 16:34:09 16:36:14 15° 67° (ENE) 16:38:19 145.475/437.950
CUTE-I 21 Nov 16:34:40 16:39:01 26° 66° (ENE) 16:43:23 437.470
HO-68 21 Nov 16:43:46 16:48:47 21° 57° (ENE) 16:53:48 435.675
XW-2D 21 Nov 16:48:37 16:51:57 31° 72° (ENE) 16:55:18 145.860 - 145.880
NO-84 21 Nov 16:52:14 16:54:35 15° 339° (NNW) 16:57:00 435.350 FM
BEESAT 21 Nov 16:54:53 16:57:48 16° 297° (WNW) 17:00:43 436.000
XW-2B 21 Nov 17:03:11 17:06:45 46° 74° (ENE) 17:10:21 145.730 - 145.750
ITUPSAT 1 21 Nov 17:05:23 17:07:39 13° 298° (WNW) 17:09:56 437.325
DOVE 4 21 Nov 17:08:07 17:12:33 31° 265° (W) 17:17:10 437.250
NUDT-PHONESAT 21 Nov 17:16:29 17:19:59 46° 74° (ENE) 17:23:29 437.300
KKS-1 21 Nov 17:24:40 17:29:10 87° 108° (ESE) 17:33:36 437.445
CUBESAT XI-V 21 Nov 17:25:45 17:29:20 22° 293° (WNW) 17:32:55 437.345
XW-2C 21 Nov 17:28:39 17:32:21 77° 259° (WSW) 17:36:07 145.795 - 145.815
LilacSat-2 21 Nov 17:31:09 17:34:52 65° 260° (W) 17:38:37 437.200
XW-2F 21 Nov 17:39:02 17:42:41 60° 260° (W) 17:46:23 145.980 - 146.000
CUTE 1.7 + AOD 2 21 Nov 17:41:41 17:45:22 31° 71° (ENE) 17:49:06 437.475
STARS 21 Nov 17:47:47 17:52:08 60° 101° (E) 17:56:27 437.465
RS-15 21 Nov 17:56:54 18:08:39 55° 111° (ESE) 18:20:24 29.354- 29.394
UWE-3 21 Nov 18:02:45 18:05:50 19° 67° (ENE) 18:08:52 435.000/436.395/437.385
KAITUO 1B 21 Nov 18:06:33 18:09:54 33° 263° (W) 18:13:17 145.475/437.950
SEEDS 21 Nov 18:11:05 18:14:58 40° 72° (ENE) 18:18:53 437.485
CUTE-I 21 Nov 18:13:49 18:18:49 40° 262° (W) 18:23:52 437.470
AAUSAT CUBESAT 2 21 Nov 18:17:28 18:20:31 20° 68° (ENE) 18:23:35 437.432
XW-2D 21 Nov 18:23:58 18:26:11 15° 267° (W) 18:28:26 145.860 - 145.880
HO-68 21 Nov 18:28:31 18:35:42 78° 255° (WSW) 18:42:57 435.675
YUBILEINY 21 Nov 18:30:27 18:36:54 23° 280° (W) 18:43:21 435.215
STRAND 1 21 Nov 18:30:36 18:34:06 18° 93° (E) 18:37:36 437.568
XW-2A 21 Nov 18:32:17 18:35:11 29° 72° (ENE) 18:38:06 145.665 - 145.685
XW-2B 21 Nov 18:40:30 18:41:10 10° 269° (W) 18:41:50 145.730 - 145.750
CUBEBUG 2 21 Nov 18:41:27 18:46:04 89° 77° (ENE) 18:50:34 437.445
AO-73 21 Nov 18:42:30 18:45:50 22° 69° (ENE) 18:49:08 145.935
Oscar 11 21 Nov 18:58:21 19:01:42 23° 68° (ENE) 19:05:03 .
CUTE 1.7 + AOD 2 21 Nov 19:18:06 19:21:13 20° 266° (W) 19:24:22 437.475
STARS 21 Nov 19:26:01 19:27:56 13° 297° (WNW) 19:29:50 437.465
ZACube-1 21 Nov 19:26:44 19:31:05 82° 76° (ENE) 19:35:20 437.345
UWE-3 21 Nov 19:37:50 19:42:00 38° 262° (W) 19:46:06 435.000/436.395/437.385
ISS 21 Nov 19:42:54 19:45:26 21° 132° (SE) 19:47:58 437.550
SRMSAT 21 Nov 19:48:13 19:48:46 10° 183° (S) 19:49:19 437.500
SEEDS 21 Nov 19:48:19 19:50:48 15° 268° (W) 19:53:19 437.485
AAUSAT CUBESAT 2 21 Nov 19:52:06 19:55:45 30° 264° (W) 19:59:27 437.432
XW-2A 21 Nov 20:06:24 20:07:56 13° 267° (W) 20:09:30 145.665 - 145.685
STRAND 1 21 Nov 20:08:36 20:13:32 49° 289° (WNW) 20:18:25 437.568
RS-15 21 Nov 20:09:33 20:21:23 50° 314° (NW) 20:33:09 29.354- 29.394
NO-84 21 Nov 20:09:50 20:12:23 15° 22° (NNE) 20:14:58 435.350 FM
DELFI C3 21 Nov 20:17:39 20:21:12 33° 72° (ENE) 20:24:47 145.870
AO-73 21 Nov 20:18:08 20:21:54 29° 263° (W) 20:25:38 145.935
HO-68 21 Nov 20:22:01 20:24:27 12° 272° (W) 20:26:53 435.675
FO-29 21 Nov 20:27:01 20:34:50 64° 100° (E) 20:42:05 435.910
nSIGHT-1 21 Nov 20:32:34 20:35:47 88° 328° (NNW) 20:39:00 .
Oscar 11 21 Nov 20:33:55 20:37:40 29° 264° (W) 20:41:26 .
SO-50 21 Nov 20:54:32 20:58:31 33° 114° (ESE) 21:02:32 436.795
EO-88 21 Nov 21:13:06 21:16:41 77° 78° (ENE) 21:20:20 145.990 - 145.960
UNISAT 6 21 Nov 21:14:03 21:17:42 27° 96° (E) 21:21:20 437.425
Max Valier Satellite 21 Nov 21:16:08 21:19:46 64° 260° (W) 21:23:24 145.860
TIGRISAT 21 Nov 21:18:14 21:21:53 27° 96° (E) 21:25:31 435.000
ISS 21 Nov 21:18:38 21:21:44 40° 328° (NNW) 21:24:51 437.550
LO-87 21 Nov 21:36:55 21:39:18 17° 68° (ENE) 21:41:40 145.935 - 145.965
NO-84 21 Nov 21:46:17 21:50:30 57° 40° (NE) 21:54:41 435.350 FM
ESTCUBE 1 21 Nov 21:51:31 21:55:01 23° 67° (ENE) 21:58:31 437.505/2401.250
DELFI C3 21 Nov 21:53:24 21:56:01 17° 267° (W) 21:58:40 145.870
PRISM 21 Nov 22:02:18 22:06:01 31° 97° (E) 22:09:41 437.425
nSIGHT-1 21 Nov 22:10:14 22:12:24 16° 340° (NNW) 22:14:33 .
FO-29 21 Nov 22:12:50 22:19:10 28° 299° (WNW) 22:25:16 435.910
RS-15 21 Nov 22:29:05 22:37:56 22° 345° (NNW) 22:46:38 29.354- 29.394
SO-50 21 Nov 22:35:10 22:38:59 27° 312° (NW) 22:42:50 436.795
UNISAT 6 21 Nov 22:50:53 22:54:18 24° 292° (WNW) 22:57:41 437.425
O/OREOS (USA 219) 21 Nov 22:51:12 22:55:41 55° 66° (ENE) 23:00:06 437.305
TIGRISAT 21 Nov 22:55:04 22:58:27 23° 292° (WNW) 23:01:49 435.000
ISS 21 Nov 22:57:25 22:58:55 12° 347° (NNW) 23:00:24 437.550
SPROUT 21 Nov 23:01:06 23:04:49 29° 70° (ENE) 23:08:32 437.525
QB50P2 21 Nov 23:09:09 23:12:20 21° 94° (E) 23:15:30 145.880/145.840
LO-87 21 Nov 23:09:20 23:12:28 27° 263° (W) 23:15:37 145.935 - 145.965
NO-84 21 Nov 23:24:29 23:27:32 19° 236° (SW) 23:30:32 435.350 FM
ESTCUBE 1 21 Nov 23:27:37 23:31:37 32° 263° (W) 23:35:39 437.505/2401.250
PRISM 21 Nov 23:37:57 23:41:04 21° 293° (WNW) 23:44:10 437.425
AIST 2D 21 Nov 23:39:34 23:42:58 47° 286° (WNW) 23:46:22 435.315
PCSat 21 Nov 23:42:35 23:47:51 56° 113° (ESE) 23:53:09 145.827
VELOX 1 21 Nov 23:44:23 23:48:43 58° 74° (ENE) 23:53:07 145.980
DUCHIFAT 1 21 Nov 23:56:57 00:01:01 50° 100° (E) 00:05:03 145.980
EO-79 22 Nov 00:05:06 00:09:19 85° 104° (ESE) 00:13:29 145.935-145.965
NANOSAT C BR1 22 Nov 00:07:51 00:12:03 80° 101° (E) 00:16:13 145.865
POLYITAN 1 22 Nov 00:20:40 00:24:49 63° 286° (WNW) 00:28:57 437.675
DX 1 22 Nov 00:27:51 00:31:54 38° 71° (ENE) 00:35:59 434.975-435.025
O/OREOS (USA 219) 22 Nov 00:32:28 00:34:32 13° 262° (W) 00:36:35 437.305
ISS 22 Nov 00:35:38 00:36:33 11° 8° (N) 00:37:28 437.550
SPROUT 22 Nov 00:37:18 00:40:40 22° 265° (W) 00:44:03 437.525
50 SAT 22 Nov 00:43:43 00:46:55 64° 76° (ENE) 00:50:08 437.505
QB50P2 22 Nov 00:44:27 00:48:08 30° 290° (WNW) 00:51:48 145.880/145.840
BUGSAT 1 22 Nov 00:46:43 00:50:34 42° 99° (E) 00:54:21 437.445
RS-15 22 Nov 00:47:17 00:56:31 24° 21° (NNE) 01:05:24 29.354- 29.394
MOZHAYETS 4 22 Nov 01:03:17 01:04:03 10° 61° (ENE) 01:04:51
UKube-1 22 Nov 01:08:02 01:12:19 68° 75° (ENE) 01:16:38 .
BEESAT 3 22 Nov 01:15:23 01:17:23 14° 109° (ESE) 01:19:23 437.485
Oscar 19 22 Nov 01:18:49 01:23:50 50° 100° (E) 01:28:51 437.125/150
VELOX 1 22 Nov 01:23:46 01:25:31 12° 269° (W) 01:27:16 145.980
nSIGHT-1 22 Nov 01:24:49 01:26:59 16° 20° (NNE) 01:29:08 .
PCSat 22 Nov 01:27:22 01:31:35 23° 312° (NW) 01:35:50 145.827
DUCHIFAT 1 22 Nov 01:34:11 01:36:13 13° 296° (WNW) 01:38:14 145.980
Gurwin Techsat 1B 22 Nov 01:50:11 01:55:31 71° 102° (ESE) 02:00:49 435.225
M-CUBED/EXP-1 PRIME 22 Nov 01:54:43 01:57:38 17° 98° (E) 02:00:33 437.505
DX 1 22 Nov 02:05:15 02:08:12 18° 266° (W) 02:11:11 434.975-435.025
ISS 22 Nov 02:11:04 02:13:54 27° 27° (NNE) 02:16:44 437.550
BEESAT 22 Nov 02:21:01 02:25:41 56° 73° (ENE) 02:30:22 436.000
BUGSAT 1 22 Nov 02:23:18 02:25:31 15° 295° (WNW) 02:27:44 437.445
BEESAT 2 22 Nov 02:27:23 02:30:36 24° 112° (ESE) 02:33:51 435.950
ITUPSAT 1 22 Nov 02:31:11 02:35:57 70° 74° (ENE) 02:40:43 437.325
MOZHAYETS 4 22 Nov 02:35:58 02:40:31 80° 257° (WSW) 02:45:06
CUBESAT XI-V 22 Nov 02:50:15 02:54:18 32° 70° (ENE) 02:58:24 437.345
BEESAT 3 22 Nov 02:50:36 02:54:28 49° 305° (NW) 02:58:23 437.485
Oscar 19 22 Nov 02:59:06 03:02:46 20° 296° (WNW) 03:06:25 437.125/150
nSIGHT-1 22 Nov 03:00:24 03:03:36 89° 40° (NE) 03:06:47 .
RS-15 22 Nov 03:00:24 03:12:12 61° 51° (NE) 03:23:18 29.354- 29.394
AO-7 22 Nov 03:07:28 03:15:27 47° 101° (E) 03:23:24 .
ITAMSAT 1 22 Nov 03:13:18 03:18:01 34° 97° (E) 03:22:42 435.822/435.867
M-CUBED/EXP-1 PRIME 22 Nov 03:27:44 03:32:10 51° 291° (WNW) 03:36:39 437.505
Gurwin Techsat 1B 22 Nov 03:31:52 03:34:50 15° 299° (WNW) 03:37:47 435.225
YUBILEINY 22 Nov 03:40:18 03:44:44 15° 76° (ENE) 03:49:12 435.215
ISS 22 Nov 03:47:24 03:50:25 36° 224° (SW) 03:53:26 437.550
AO-85 22 Nov 03:51:11 03:55:02 72° 118° (ESE) 03:59:02 145.980
BEESAT 22 Nov 04:01:12 04:03:47 14° 268° (W) 04:06:22 436.000
BEESAT 2 22 Nov 04:04:38 04:08:11 29° 309° (NW) 04:11:47 435.950
ITUPSAT 1 22 Nov 04:12:42 04:14:13 11° 270° (W) 04:15:44 437.325
KKS-1 22 Nov 04:21:18 04:25:46 71° 74° (ENE) 04:30:15 437.445
CUBESAT XI-V 22 Nov 04:28:01 04:31:41 23° 266° (W) 04:35:23 437.345
STARS 22 Nov 04:43:03 04:47:18 47° 72° (ENE) 04:51:34 437.465
ITAMSAT 1 22 Nov 04:52:56 04:57:20 28° 294° (WNW) 05:01:42 435.822/435.867
AO-7 22 Nov 05:00:29 05:08:01 40° 299° (WNW) 05:15:34 .
XW-2C 22 Nov 05:03:48 05:05:09 11° 91° (E) 05:06:29 145.795 - 145.815
LilacSat-2 22 Nov 05:06:22 05:08:24 14° 92° (E) 05:10:25 437.200
DOVE 4 22 Nov 05:07:18 05:12:30 84° 103° (ESE) 05:17:24 437.250
XW-2F 22 Nov 05:12:57 05:15:00 14° 92° (E) 05:17:03 145.980 - 146.000
RS-15 22 Nov 05:13:40 05:23:59 39° 254° (WSW) 05:33:53 29.354- 29.394
SO-50 22 Nov 05:26:13 05:30:08 26° 48° (NE) 05:34:06 436.795
YUBILEINY 22 Nov 05:31:20 05:40:04 84° 95° (E) 05:48:55 435.215
AO-85 22 Nov 05:34:15 05:35:58 12° 319° (NW) 05:37:43 145.980
KAITUO 1B 22 Nov 05:38:19 05:41:20 22° 95° (E) 05:44:19 145.475/437.950
STRAND 1 22 Nov 05:45:23 05:49:32 25° 66° (ENE) 05:53:41 437.568
XW-2D 22 Nov 05:55:15 05:59:00 54° 100° (E) 06:02:44 145.860 - 145.880
HO-68 22 Nov 05:58:28 06:03:43 21° 92° (E) 06:08:55 435.675
XW-2B 22 Nov 06:10:04 06:13:53 82° 102° (ESE) 06:17:42 145.730 - 145.750
NUDT-PHONESAT 22 Nov 06:20:37 06:24:20 76° 102° (ESE) 06:28:03 437.300
STARS 22 Nov 06:21:20 06:23:51 15° 267° (W) 06:26:24 437.465
CUTE-I 22 Nov 06:31:14 06:36:39 88° 99° (E) 06:41:59 437.470
CUBEBUG 2 22 Nov 06:34:09 06:37:01 18° 93° (E) 06:39:52 437.445
